{"data":{"norad_id":69945,"intl_designator":"2026-157C","name":"STARLINK-37903","alt_names":[],"object_type":"PAYLOAD","status":"ACTIVE","operator":null,"country":"US","launch_date":"2026-07-09","launch_site_code":"AFETR","launch_vehicle":null,"mission":null,"orbit_class":"UNKNOWN","rcs_meters":null,"size_class":null,"mass_kg":null,"dimensions":null,"purposes":["comms"],"wikipedia_slug":null,"has_3d_model":false,"image_url":null,"decayed_at":null,"tle_current":{"epoch":"2026-09-20T04:48:24.752736Z","epoch_age_seconds":43682,"freshness":"FRESH","line1":"1 69945U 26157C   26263.20028649  .00009769  00000+0  29992-3 0  9998","line2":"2 69945  53.1603 335.3699 0001563  92.0039 268.1142 15.34396526 11324","mean_motion":15.34396526,"eccentricity":0.0001563,"inclination_deg":53.1603,"raan_deg":335.3699,"arg_perigee_deg":92.0039,"mean_anomaly_deg":268.1142,"bstar":0.00029992,"rev_number":1132,"period_min":93.847970560382,"perigee_km":461.64434074328,"apogee_km":463.78279063012,"semimajor_km":6840.8505656867,"source":"CELESTRAK","updated_at":"2026-09-20T09:00:44.299116Z"}}}